This demonstration page uses our WeatherBlox Daily Observations layout. Learn more.

Left ArrowRight Arrow

Hourly Observations for August 20, 2022

Temp ( °F °C ) Dew Point ( °F °C ) Humidity (%) Winds ( mph kmh ) Pressure ( in mb ) Visibility ( mi km ) Precip ( " mm )
12:52 am 00:52 Mostly Clear 73 22.8 62 16.7 68 68 SSE 7 11 29.94 1014 10 16 0.00 0.00
1:52 am 01:52 Mostly Cloudy 72 22.2 63 17.2 73 73 S 8 13 29.94 1014 10 16 0.00 0.00
2:52 am 02:52 Clear 70 21.1 63 17.2 78 78 S 7 11 29.94 1014 10 16 0.00 0.00
3:52 am 03:52 Mostly Cloudy 71 21.7 62 16.7 73 73 W 5 7 29.97 1015 10 16 0.00 0.00
4:52 am 04:52 Clear 70 21.1 63 17.2 78 78 S 3 6 29.96 1015 10 16 0.00 0.00
5:52 am 05:52 Partly Cloudy 71 21.7 63 17.2 76 76 Calm 29.98 1015 10 16 0.00 0.00
6:52 am 06:52 Cloudy 66 18.9 63 17.2 90 90 NNW 6 9 30.02 1017 10 16 0.07 1.78
7:52 am 07:52 Mostly Cloudy 67 19.4 64 17.8 90 90 SE 13 20 29.96 1015 10 16 0.01 0.13
8:52 am 08:52 Sunny 70 21.1 65 18.3 84 84 S 9 15 29.99 1016 10 16 0.00 0.00
9:52 am 09:52 Partly Cloudy 74 23.3 65 18.3 74 74 S 9 15 29.99 1016 10 16 0.00 0.00
10:52 am 10:52 Mostly Cloudy 78 25.6 67 19.4 69 69 SSW 10 17 30.01 1016 10 16 0.00 0.00
11:52 am 11:52 Mostly Cloudy 77 25 67 19.4 71 71 SW 8 13 30.01 1016 10 16 0.00 0.00
12:52 pm 12:52 Sunny 81 27.2 70 21.1 69 69 SW 8 13 29.99 1016 10 16 0.00 0.00
1:52 pm 13:52 Sunny 85 29.4 68 20 57 57 WSW 14 22 29.97 1015 10 16 0.00 0.00
2:52 pm 14:52 Partly Cloudy 86 30 69 20.6 57 57 SSW 14 22 29.95 1014 10 16 0.00 0.00
3:52 pm 15:52 Partly Cloudy 87 30.6 66 18.9 50 50 WSW 9 15 29.92 1013 10 16 0.00 0.00
4:52 pm 16:52 Mostly Cloudy 86 30 67 19.4 53 53 SW 8 13 29.91 1013 10 16 0.00 0.00
5:52 pm 17:52 Mostly Sunny 85 29.4 67 19.4 55 55 WSW 3 6 29.90 1013 10 16 0.00 0.00
6:28 pm 18:28 Mostly Cloudy with Nearby Thunderstorms 83 28.3 69 20.6 63 63 SW 7 11 29.88 1012 10 16 0.00 0.00
6:52 pm 18:52 Cloudy with Thunderstorms 77 25 69 20.6 77 77 N 8 13 29.93 1013 10 16 0.00 0.00
7:13 pm 19:13 Cloudy with Thunderstorms 73 22.8 65 18.3 76 76 S 12 19 29.91 1013 2 3 0.12 3.05
7:17 pm 19:17 Cloudy with Nearby Thunderstorms 72 22.2 65 18.3 79 79 SSE 15 24 29.90 1013 3 5 0.12 3.05
7:24 pm 19:24 Mostly Cloudy with Nearby Thunderstorms 73 22.8 66 18.9 79 79 SSE 12 19 29.90 1013 10 16 0.12 3.05
7:36 pm 19:36 Mostly Cloudy 73 22.8 67 19.4 81 81 S 8 13 29.91 1013 10 16 0.12 3.05
7:48 pm 19:48 Mostly Cloudy with Nearby Thunderstorms 73 23 66 19 78 78 SE 7 11 29.91 1013 10 16 0.12 3.05
7:52 pm 19:52 Mostly Cloudy with Nearby Thunderstorms 73 22.8 68 20 84 84 SE 6 9 29.93 1014 10 16 0.12 3.05
8:03 pm 20:03 Cloudy 73 22.8 69 20.6 87 87 Calm 29.92 1013 10 16 0.00 0.00
8:12 pm 20:12 Cloudy with Nearby Thunderstorms 73 22.8 68 20 84 84 ESE 5 7 29.92 1013 10 16 0.00 0.00
8:26 pm 20:26 Cloudy with Thunderstorms 73 22.8 69 20.6 87 87 WSW 17 28 29.94 1014 3 5 0.01 0.13
8:31 pm 20:31 Cloudy with Strong Thunderstorms 75 23.9 67 19.4 76 76 VRB 5 7 29.94 1014 2 3 0.08 2.03
8:35 pm 20:35 Cloudy with Rain 75 23.9 66 18.9 74 74 NW 9 15 29.95 1014 2 3 0.18 4.57
8:43 pm 20:43 Cloudy with Light Rain 72 22.2 68 20 87 87 Calm 29.93 1014 10 16 0.19 4.83
8:52 pm 20:52 Mostly Cloudy 73 22.8 69 20.6 87 87 Calm 29.95 1014 10 16 0.19 4.83
9:52 pm 21:52 Clear 73 22.8 69 20.6 87 87 NNW 3 6 29.95 1014 10 16 0.02 0.51
10:52 pm 22:52 Cloudy 71 21.7 69 20.6 93 93 Calm 29.97 1015 10 16 0.00 0.00
11:52 pm 23:52 Mostly Clear 70 21.1 69 20.6 97 97 WSW 6 9 29.97 1015 9 14 0.00 0.00

Powered by AerisWeather